IGO128 VIDP-VABB

Flight info

Callsign IGO128
Flight time N/A
Altitude 38000
Route DUDUM7C DUDUM Q2 AKTIV IGBAN2A
Aircraft A20N/M-SDE2E3FGHIRWXY/LB1

Departure

Time 2026-04-30 11:27
Airport Indira Gandhi International Airport (VIDP)

Arrival

Time N/A
Airport Chhatrapati Shivaji Maharaj International Airport (VABB)
Time Latitude Longitude Altitude Speed Heading
2026-04-30 11:02 28.54938 77.08896 751 ft 0 kts 59°
2026-04-30 11:09 28.54936 77.08892 751 ft 1 kts 59°
2026-04-30 11:09 28.54933 77.08887 751 ft 1 kts 59°
2026-04-30 11:09 28.54930 77.08881 751 ft 1 kts 59°
2026-04-30 11:10 28.54938 77.08896 751 ft 0 kts 59°
2026-04-30 11:19 28.54934 77.08890 751 ft 1 kts 59°
2026-04-30 11:20 28.54931 77.08882 751 ft 4 kts 60°
2026-04-30 11:20 28.54915 77.08846 749 ft 5 kts 70°
2026-04-30 11:20 28.54906 77.08806 750 ft 5 kts 83°
2026-04-30 11:20 28.54905 77.08765 748 ft 5 kts 95°
2026-04-30 11:21 28.54909 77.08724 751 ft 5 kts 100°
2026-04-30 11:21 28.54911 77.08715 750 ft 0 kts 101°
2026-04-30 11:22 28.54909 77.08725 751 ft 3 kts 101°
2026-04-30 11:22 28.54896 77.08784 747 ft 11 kts 106°
2026-04-30 11:22 28.54871 77.08882 751 ft 14 kts 106°
2026-04-30 11:23 28.54844 77.08995 750 ft 15 kts 104°
2026-04-30 11:23 28.54817 77.09119 751 ft 17 kts 104°
2026-04-30 11:23 28.54664 77.09790 749 ft 63 kts 104°
2026-04-30 11:24 28.54569 77.10199 749 ft 28 kts 107°
2026-04-30 11:24 28.54524 77.10392 751 ft 25 kts 103°
2026-04-30 11:24 28.54463 77.10573 749 ft 23 kts 143°
2026-04-30 11:25 28.54345 77.10561 749 ft 0 kts 195°
2026-04-30 11:25 28.54344 77.10561 749 ft 1 kts 195°
2026-04-30 11:26 28.54231 77.10489 749 ft 11 kts 266°
2026-04-30 11:26 28.54268 77.10283 751 ft 66 kts 284°
2026-04-30 11:26 28.54454 77.09428 746 ft 152 kts 284°
2026-04-30 11:27 28.54754 77.08059 782 ft 212 kts 287°
2026-04-30 11:27 28.55102 77.06390 1399 ft 223 kts 286°
2026-04-30 11:27 28.55374 77.04477 1471 ft 271 kts 272°
2026-04-30 11:27 28.55060 77.02240 2031 ft 292 kts 249°
2026-04-30 11:28 28.52611 76.98964 4728 ft 267 kts 207°
2026-04-30 11:28 28.50871 76.98339 6051 ft 258 kts 192°
2026-04-30 11:28 28.49107 76.98223 7219 ft 252 kts 184°
2026-04-30 11:29 28.47350 76.98255 8240 ft 250 kts 182°
2026-04-30 11:29 28.45673 76.98311 9546 ft 231 kts 186°
2026-04-30 11:29 28.42740 76.97950 11598 ft 207 kts 198°
2026-04-30 11:30 28.39730 76.97061 12779 ft 223 kts 205°
2026-04-30 11:30 28.38298 76.96455 13655 ft 217 kts 211°
2026-04-30 11:30 28.36952 76.95693 14326 ft 217 kts 218°
2026-04-30 11:31 28.35706 76.94725 14915 ft 219 kts 225°
2026-04-30 11:31 28.34579 76.93566 15522 ft 219 kts 233°
2026-04-30 11:31 28.33630 76.92213 16137 ft 219 kts 243°
2026-04-30 11:31 28.32940 76.90680 16775 ft 218 kts 252°
2026-04-30 11:32 28.32441 76.89049 17403 ft 220 kts 256°
2026-04-30 11:32 28.32021 76.87372 18023 ft 222 kts 259°
2026-04-30 11:32 28.31597 76.85605 18300 ft 246 kts 253°
2026-04-30 11:33 28.29743 76.81900 18848 ft 293 kts 238°
2026-04-30 11:33 28.29220 76.81102 18997 ft 301 kts 236°